{"data":{"norad_id":57339,"intl_designator":"2023-099M","name":"STARLINK-6332","alt_names":[],"object_type":"PAYLOAD","status":"ACTIVE","operator":null,"country":"US","launch_date":"2023-07-16","launch_site_code":"AFETR","launch_vehicle":null,"mission":null,"orbit_class":"UNKNOWN","rcs_meters":null,"size_class":null,"mass_kg":null,"dimensions":null,"purposes":["comms"],"wikipedia_slug":null,"has_3d_model":false,"image_url":null,"decayed_at":null,"tle_current":{"epoch":"2026-05-25T02:49:06.112704Z","epoch_age_seconds":55042,"freshness":"FRESH","line1":"1 57339U 23099M   26145.11743186  .00000628  00000+0  32330-4 0  9999","line2":"2 57339  43.0013 180.8963 0000183 186.1048 173.9801 15.27573464157764","mean_motion":15.27573464,"eccentricity":1.83e-5,"inclination_deg":43.0013,"raan_deg":180.8963,"arg_perigee_deg":186.1048,"mean_anomaly_deg":173.9801,"bstar":3.233e-5,"rev_number":15776,"period_min":94.267152051026,"perigee_km":482.94310718104,"apogee_km":483.19422730846,"semimajor_km":6861.2056672447,"source":"CELESTRAK","updated_at":"2026-05-25T13:38:18.287604Z"}}}